Location: Goettingen
(51.5300°N, 9.9433°E)
Time: 17:50:27
(UTC+02:00)

ISS - Pass Details

Date: 30 May 2020
Orbit: 417 x 420 km, 51.6° (Epoch: 26 May)

Event Time Altitude Azimuth Distance (km) Brightness Sun altitude
Rises 23:10:20 0° 279° (W) 2,366 0.7 -11.4°
Reaches altitude 10° 23:13:21 10° 249° (WSW) 1,498 -0.8 -11.6°
Maximum altitude 23:14:53 13° 222° (SW) 1,344 -1.4 -11.7°
Enters shadow 23:16:11 11° 198° (SSW) 1,451 -1.4 -11.8°
